KE5KUL-13 Weather Reports


time (UTC)temp
C
wind
direction
speed
KPH
gust
KPH
rain 1hr
cm
rain 24hr
cm
rain mn
cm
humidity
%
barometer
mb
20260507042517 8 45 9.7 19.3 0.00 0.00 0.00 61 1022.5
20260507041517 9 23 4.8 17.7 0.00 0.00 0.00 59 1022.4
20260507040517 9 45 6.4 19.3 0.00 0.00 0.00 59 1022.4
20260507035518 9 45 8.0 22.5 0.00 0.00 0.00 58 1021.8
20260507034517 10 45 9.7 24.1 0.00 0.00 0.00 57 1022.1
20260507033517 10 45 9.7 24.1 0.00 0.00 0.00 57 1022.0
20260507032517 10 45 8.0 20.9 0.00 0.00 0.00 57 1021.8
20260507031518 10 45 8.0 20.9 0.00 0.00 0.00 56 1021.7
20260507030517 11 45 8.0 17.7 0.00 0.00 0.00 55 1021.2
20260507025517 11 45 8.0 19.3 0.00 0.00 0.00 54 1021.0
20260507024517 11 23 6.4 19.3 0.00 0.00 0.00 54 1021.0
20260507023517 11 23 9.7 25.7 0.00 0.00 0.00 53 1020.4
20260507022517 12 23 11.3 25.7 0.00 0.00 0.00 52 1020.2
20260507021517 12 23 6.4 20.9 0.00 0.00 0.00 52 1019.8
20260507020517 12 45 6.4 24.1 0.00 0.00 0.00 52 1019.7
20260507015517 12 23 4.8 12.9 0.00 0.00 0.00 53 1018.9
20260507014517 12 45 4.8 14.5 0.00 0.00 0.00 52 1018.9
20260507013517 12 68 3.2 14.5 0.00 0.00 0.00 52 1018.7
20260507012517 13 90 3.2 9.7 0.00 0.00 0.00 51 1018.0
20260507011517 13 45 3.2 8.0 0.00 0.00 0.00 50 1017.5
20260507010517 13 113 3.2 12.9 0.00 0.00 0.00 50 1017.4
20260507005517 14 135 3.2 11.3 0.00 0.00 0.00 49 1017.1
20260507004517 14 135 1.6 6.4 0.00 0.00 0.00 49 1016.9
20260507003519 14 68 1.6 8.0 0.00 0.00 0.00 48 1017.0
20260507002517 15 113 3.2 17.7 0.00 0.00 0.00 47 1017.0
20260507001517 15 135 3.2 9.7 0.00 0.00 0.00 46 1017.0
20260507000517 15 135 6.4 17.7 0.00 0.00 0.00 46 1017.0
20260506235519 15 135 8.0 19.3 0.00 0.00 0.00 46 1016.5
20260506234519 16 135 6.4 20.9 0.00 0.00 0.00 45 1016.6
20260506233517 16 135 4.8 17.7 0.00 0.00 0.00 45 1016.5
20260506232517 16 135 3.2 9.7 0.00 0.00 0.00 44 1016.6
20260506231519 16 135 4.8 14.5 0.00 0.00 0.00 44 1016.8
20260506230519 16 135 4.8 11.3 0.00 0.00 0.00 45 1016.7
20260506225517 16 158 4.8 11.3 0.00 0.00 0.00 45 1016.7
20260506224517 17 45 4.8 20.9 0.00 0.00 0.00 44 1016.9
20260506223519 17 158 3.2 11.3 0.00 0.00 0.00 44 1016.9
20260506222519 17 45 3.2 11.3 0.00 0.00 0.00 44 1017.0
20260506221519 17 113 4.8 14.5 0.00 0.00 0.00 44 1017.4
20260506220518 17 113 3.2 9.7 0.00 0.00 0.00 44 1017.5
20260506215518 17 113 3.2 14.5 0.00 0.00 0.00 44 1017.4
20260506214517 17 113 4.8 14.5 0.00 0.00 0.00 44 1017.6
20260506213519 17 135 6.4 20.9 0.00 0.00 0.00 42 1017.7
20260506212517 18 90 4.8 12.9 0.00 0.00 0.00 42 1017.7
20260506211518 17 45 4.8 16.1 0.00 0.00 0.00 43 1017.8
20260506210519 17 90 3.2 9.7 0.00 0.00 0.00 45 1017.6
20260506205519 16 135 4.8 12.9 0.00 0.00 0.00 44 1017.6
20260506204519 17 113 3.2 14.5 0.00 0.00 0.00 42 1017.9
20260506203519 17 135 6.4 16.1 0.00 0.00 0.00 44 1017.8
20260506202518 17 135 4.8 12.9 0.00 0.00 0.00 41 1017.6
20260506201519 18 45 3.2 9.7 0.00 0.00 0.00 42 1017.8
20260506200518 17 113 4.8 16.1 0.00 0.00 0.00 43 1017.7
20260506195518 17 113 4.8 12.9 0.00 0.00 0.00 43 1017.5
20260506194518 17 135 3.2 12.9 0.00 0.00 0.00 42 1017.4
20260506193518 17 90 3.2 9.7 0.00 0.00 0.00 45 1017.7
20260506192518 16 135 3.2 9.7 0.00 0.00 0.00 47 1017.7
20260506191519 17 135 6.4 16.1 0.00 0.00 0.00 43 1017.8
20260506190518 16 113 3.2 19.3 0.00 0.00 0.00 46 1018.2
20260506185518 16 23 6.4 19.3 0.00 0.00 0.00 45 1017.9
20260506184519 17 68 1.6 8.0 0.00 0.00 0.00 44 1018.3
20260506183518 17 45 3.2 9.7 0.00 0.00 0.00 44 1018.3
20260506182518 16 45 3.2 8.0 0.00 0.00 0.00 47 1018.2
20260506181623 15 135 3.2 12.9 0.00 0.00 0.00 48 1018.3
20260506180518 15 113 3.2 8.0 0.00 0.00 0.00 49 1018.5
20260506175518 15 45 3.2 9.7 0.00 0.00 0.00 51 1018.6
20260506174518 15 23 4.8 14.5 0.00 0.00 0.00 49 1018.8
20260506173518 15 135 4.8 16.1 0.00 0.00 0.00 49 1018.8
20260506172518 13 113 3.2 11.3 0.00 0.00 0.00 54 1018.6
20260506171518 13 135 3.2 9.7 0.00 0.00 0.00 54 1018.2
20260506170518 13 135 4.8 14.5 0.00 0.00 0.00 54 1018.4
20260506165518 12 113 6.4 12.9 0.00 0.00 0.00 55 1018.1
20260506164518 12 135 1.6 8.0 0.00 0.00 0.00 58 1018.3
20260506163518 11 135 4.8 11.3 0.00 0.00 0.00 57 1018.3
20260506162518 11 113 1.6 8.0 0.00 0.00 0.00 58 1018.2
20260506161518 11 158 3.2 6.4 0.00 0.00 0.00 57 1018.0
20260506161220 11 158 1.6 6.4 0.00 0.00 0.00 58 1017.8
20260506154018 10 0.0 3.2 0.00 0.00 0.00 62 1017.5
20260506153018 10 135 3.2 11.3 0.00 0.00 0.00 62 1017.5
20260506152018 9 135 3.2 11.3 0.00 0.00 0.00 63 1017.0
20260506151018 9 135 4.8 12.9 0.00 0.00 0.00 63 1017.2
20260506150018 8 0.0 4.8 0.00 0.00 0.00 64 1017.0
20260506145018 8 135 3.2 6.4 0.00 0.00 0.00 64 1017.1
20260506144018 8 135 1.6 8.0 0.00 0.00 0.00 66 1016.6
20260506143018 7 113 4.8 12.9 0.00 0.00 0.00 66 1016.5
20260506142018 7 135 4.8 12.9 0.00 0.00 0.00 67 1016.3
20260506141018 7 135 6.4 14.5 0.00 0.00 0.00 67 1016.2
20260506140017 7 135 6.4 17.7 0.00 0.00 0.00 67 1016.2
20260506135018 7 135 9.7 19.3 0.00 0.00 0.00 68 1016.3
20260506134018 7 135 8.0 16.1 0.00 0.00 0.00 68 1016.5
20260506133017 6 135 3.2 14.5 0.00 0.00 0.00 69 1016.5
20260506132017 6 113 6.4 14.5 0.00 0.00 0.00 69 1016.5
20260506131018 6 113 6.4 16.1 0.00 0.00 0.00 70 1016.6
20260506130018 6 113 4.8 14.5 0.00 0.00 0.00 70 1017.1
20260506125017 6 113 8.0 16.1 0.00 0.00 0.00 70 1017.0
20260506124017 6 113 4.8 8.0 0.00 0.00 0.00 72 1016.9
20260506123018 5 135 4.8 11.3 0.00 0.00 0.00 72 1016.9
20260506122018 5 135 3.2 14.5 0.00 0.00 0.00 72 1017.0
20260506121017 5 135 4.8 14.5 0.00 0.00 0.00 72 1016.5
20260506120017 5 135 4.8 12.9 0.00 0.00 0.00 72 1016.5
20260506115018 5 135 6.4 16.1 0.00 0.00 0.00 73 1016.1
20260506114018 5 135 6.4 16.1 0.00 0.00 0.00 74 1016.2
20260506113018 5 135 4.8 12.9 0.00 0.00 0.00 78 1016.0
20260506112017 5 135 3.2 11.3 0.00 0.00 0.00 80 1015.9
20260506111017 5 135 4.8 19.3 0.00 0.00 0.00 81 1015.8
20260506110017 5 135 4.8 12.9 0.00 0.00 0.00 82 1016.0
20260506105017 5 135 4.8 14.5 0.00 0.00 0.00 82 1016.2
20260506104017 5 113 3.2 11.3 0.00 0.00 0.00 81 1016.2
20260506103017 6 135 6.4 16.1 0.00 0.00 0.00 79 1016.1
20260506102017 6 113 3.2 11.3 0.00 0.00 0.00 78 1016.3
20260506101017 6 113 1.6 6.4 0.00 0.00 0.00 78 1016.1
20260506100057 6 68 1.6 8.0 0.00 0.00 0.00 78 1015.8
20260506095517 6 135 1.6 6.4 0.00 0.00 0.00 78 1015.7
20260506094517 6 135 1.6 6.4 0.00 0.00 0.00 78 1015.8
20260506093517 7 113 1.6 6.4 0.00 0.00 0.00 77 1015.4
20260506092517 7 135 3.2 8.0 0.00 0.00 0.00 77 1015.1
20260506091517 7 158 1.6 6.4 0.00 0.00 0.00 77 1015.2
20260506090517 7 113 3.2 11.3 0.00 0.00 0.00 76 1014.9
20260506085517 7 135 1.6 6.4 0.00 0.00 0.00 76 1015.0
20260506084517 7 113 1.6 8.0 0.00 0.00 0.00 75 1015.4
20260506083517 7 135 3.2 8.0 0.00 0.00 0.00 75 1015.4
20260506082517 7 135 3.2 8.0 0.00 0.00 0.00 76 1014.8
20260506081517 6 135 1.6 6.4 0.00 0.00 0.00 76 1014.5
20260506080517 6 135 1.6 4.8 0.00 0.00 0.00 77 1014.8
20260506073517 6 113 1.6 6.4 0.00 0.00 0.00 76 1013.8
20260506072517 6 135 4.8 12.9 0.00 0.00 0.00 76 1013.7
20260506071519 6 113 3.2 6.4 0.00 0.00 0.00 75 1014.1
20260506070519 6 90 1.6 6.4 0.00 0.00 0.00 75 1014.7
20260506061519 6 68 1.6 6.4 0.00 0.00 0.00 75 1014.0
20260506060517 6 113 3.2 9.7 0.00 0.00 0.00 74 1013.6
20260506050519 7 158 3.2 6.4 0.00 0.00 0.00 70 1012.9
20260506045018 7 113 4.8 19.3 0.00 0.00 0.00 69 1012.2
20260506044017 8 135 4.8 14.5 0.00 0.00 0.00 68 1012.2